Flag for Germany Weather past 2 weeks in Zeitz, Saxony-Anhalt, Germany

Now
37 °F

Passing clouds.


Feels Like: 31 °F
Forecast: 37 / 43 °F
Wind: 9 mph from Northwest

Location: Gera-Leumnitz

Current Time: Dec 20, 2014 at 11:43:27 PM

Latest Report: Dec 20, 2014 at 11:00 PM


Visibility: 44 mi

Pressure: 30.14 "Hg

Humidity: 79%

Dew point: 31 °F

Location of ZeitzLocation

Historic Weather in Zeitz — Graph

°F

Zeitz temperature yesterday

Maximum temperature yesterday: 54 °F (at 12:00 AM)
Minimum temperature yesterday: 41 °F (at 11:00 PM)
Average temperature yesterday: 50 °F

Past Weeks' High & Low Weather Summary

 TemperatureHumidityPressure
High54 °F (Dec 19, 12:00 AM)100% (Dec 7, 1:00 AM)30.45 "Hg (Dec 7, 1:00 AM)
Low26 °F (Dec 9, 5:00 AM)63% (Dec 15, 2:00 PM)29.54 "Hg (Dec 12, 8:00 PM)
Average38 °F87%29.99 "Hg
* Reported Dec 5 11:00 PM — Dec 20 11:00 PM, Zeitz, Weather by CustomWeather, © 2014

Note: Actual official high and low records may vary slightly from our data, if they occured in-between our weather recording intervals... More about our weather records

Advertising

Zeitz weather history for previous 24 hours

 ConditionsComfort  
Time TempWeatherWind HumidityBarometerVisibility
11:00 PM
Dec 20
37 °FPassing clouds.9 mph79%30.14 "Hg43 mi
10:00 PM39 °FPassing clouds.9 mph81%30.10 "Hg43 mi
9:00 PM38 °FOvercast.9 mph83%30.05 "Hg37 mi
8:00 PM36 °FPassing clouds.9 mph91%30.04 "Hg37 mi
7:00 PM36 °FRain showers. Low clouds.14 mph94%30.02 "Hg1 mi
6:00 PM41 °FOvercast.12 mph72%29.97 "Hg34 mi
5:00 PM40 °FOvercast.12 mph73%29.95 "Hg31 mi
4:00 PM41 °FOvercast.10 mph71%29.95 "Hg31 mi
3:00 PM41 °FOvercast.9 mph70%29.98 "Hg31 mi
2:00 PM41 °FOvercast.10 mph69%29.99 "Hg31 mi
1:00 PM41 °FOvercast.10 mph68%30.02 "Hg40 mi
12:00 PM41 °FOvercast.10 mph68%30.04 "Hg40 mi
11:00 AM41 °FOvercast.8 mph70%30.06 "Hg40 mi
10:00 AM40 °FOvercast.7 mph73%30.08 "Hg40 mi
9:00 AM39 °FOvercast.8 mph73%30.10 "Hg43 mi
8:00 AM39 °FOvercast.7 mph75%30.09 "Hg43 mi
7:00 AM39 °FOvercast.6 mph74%30.10 "Hg43 mi
6:00 AM39 °FOvercast.8 mph73%30.10 "Hg43 mi
5:00 AM39 °FOvercast.8 mph72%30.09 "Hg43 mi
4:00 AM38 °FPassing clouds.7 mph75%30.10 "Hg43 mi
3:00 AM39 °FClear.9 mph75%30.09 "Hg43 mi
2:00 AM39 °FPassing clouds.8 mph76%30.08 "Hg43 mi
1:00 AM40 °FPassing clouds.7 mph77%30.06 "Hg43 mi
12:00 AM40 °FPassing clouds.6 mph73%30.04 "Hg43 mi
11:00 PM
Dec 19
41 °FClear.7 mph71%30.02 "Hg43 mi
Weather by CustomWeather, © 2014

See weather overviewHow to use our weather pages